Location: Moakhi
(25.5833°S, 25.0833°E)
Time: 11:08:30
(UTC+00:00)

Daily predictions for brighter satellites

Satellite Brightness Start Highest point End
(mag) Time Altitude Azimuth Time Altitude Azimuth Time Altitude Azimuth
ARIANE 5 R/B 3.6 16:15:33 10° SE 16:19:30 23° E 16:23:25 10° NNE
ATLAS 2A CENTAUR R/B 4.2 16:14:26 10° W 16:20:00 88° S 16:34:37 10° E
Meteor 1-12 Rocket 4.4 16:15:16 10° S 16:21:11 84° E 16:27:09 10° N
FALCON 9 R/B 2.8 16:18:26 10° W 16:22:34 63° NNW 16:36:42 10° ENE
Thor Agena Rocket 4.4 16:20:03 10° SE 16:24:41 30° E 16:29:15 10° NNE
CZ-3A R/B 3.3 16:11:09 10° WNW 16:24:53 60° N 16:28:18 10° E
Cosmos 2082 4.5 16:23:11 10° NNW 16:28:41 57° WSW 16:34:18 10° S
Cosmos 1400 Rocket 4.3 16:26:58 10° SE 16:28:44 13° ESE 16:30:29 10° ENE
Cosmos 1869 Rocket 3.8 16:25:01 10° S 16:29:14 47° E 16:33:25 10° NNE
SMAP 3.1 16:29:47 10° SSE 16:34:31 90° NE 16:39:10 10° NNW
Cosmos 2181 Rocket 4.4 16:28:54 10° NNE 16:34:49 44° E 16:40:52 10° SSE
COSMO-SKYMED 1 3.7 16:34:09 10° N 16:38:05 46° W 16:42:05 10° SSW
SJ-12 4.4 16:36:13 10° SE 16:39:40 32° E 16:43:04 10° NNE
Centaur D-1AR AC-40 3.6 16:19:36 10° W 16:40:16 60° NNW 16:44:51 10° ENE
Cosmos 1707 Rocket 3.8 16:38:37 10° NNE 16:42:45 45° E 16:46:58 10° SSE
SL-8 Rocket 4.2 16:37:38 10° S 16:43:38 49° E 16:49:36 10° NNE
Cosmos 1862 Rocket 3.6 16:39:58 10° N 16:44:08 52° E 16:48:20 10° SSE
SEDSat Delta rocket 4.4 16:42:25 10° NW 16:48:40 46° NNE 16:53:10 18° E
Star 48B S/N 10041-17 4.5 16:45:04 10° W 16:50:12 88° S 16:51:44 22° E
Cosmos 1484 Rocket 4.2 16:47:44 10° S 16:50:55 34° WSW 16:54:01 10° NW
Cosmos 2341 Rocket 4.0 16:50:14 10° S 16:56:25 62° E 17:02:33 10° NNE
Cosmos 1844 3.7 16:53:54 10° NNW 16:59:39 90° ENE 17:05:23 10° SSE
Cosmos 2366 rocket 4.0 16:55:03 10° S 17:01:18 64° E 17:07:26 10° NNE
BREEZE-M DEB (TANK) 3.0 17:00:33 10° N 17:02:21 22° NE 17:02:21 22° NE
CZ-2D R/B 2.4 16:59:40 10° SSE 17:02:40 66° E 17:05:38 10° N
Delta 168 3.3 17:00:11 10° W 17:04:27 89° N 17:07:51 26° E
IRS-P3 4.4 17:00:51 10° SSE 17:05:59 46° E 17:11:05 10° N
Cosmos 2298 Rocket 4.1 17:01:12 10° S 17:06:22 50° ESE 17:11:28 10° NNE
Cosmos 1441 Rocket 2.8 17:05:44 10° N 17:09:01 81° W 17:12:19 10° S
TRAILBLAZER 4.4 17:04:45 10° SSW 17:09:14 76° ESE 17:13:46 10° NNE
SL-16 R/B 2.6 17:08:09 10° SSW 17:13:46 65° WNW 17:19:20 10° N
BlueWalker 3 1.6 17:12:52 10° NW 17:16:29 89° NE 17:17:29 45° SE
NOAA 15 4.5 17:16:36 10° SSE 17:21:57 70° ENE 17:27:13 10° N
Cosmos 1959 Rocket 4.5 17:17:45 10° S 17:24:10 87° E 17:30:31 10° N
Milstar 3 Cent rocket 1.9 17:22:34 10° WNW 17:27:11 88° NNE 17:28:56 43° ESE
Cosmos 1844 Rocket 4.0 17:26:46 10° NW 17:31:55 38° WSW 17:37:10 10° S
Meteor 2-5 Rocket 3.8 17:26:37 10° N 17:32:25 87° W 17:38:23 10° S
ATLAS 2AS CENTAUR R/B 4.1 17:29:59 10° S 17:34:05 21° SE 17:34:05 21° SE
Cosmos 1821 Rocket 3.8 17:30:36 10° S 17:36:47 83° E 17:42:58 10° N
Delta 7925 Rocket 3.2 17:32:04 10° W 17:36:48 87° N 17:37:39 62° ENE
Cosmos 1733 Rocket 3.4 17:35:10 10° SSW 17:39:28 62° W 17:43:44 10° N
SWIFT 3.9 17:39:57 10° NW 17:41:18 19° NNW 17:41:18 19° NNW
YAOGAN 1 3.0 17:39:49 11° S 17:43:57 60° WSW 17:48:08 10° NNW
Meteor 1-24 Rocket 4.5 17:38:49 10° NNW 17:44:42 57° W 17:50:40 10° S
Resurs 01 Rocket 3.8 17:49:03 14° N 17:49:03 14° N 17:49:45 10° N
USA 215 3.2 17:43:29 33° SE 17:46:42 89° SW 17:53:14 10° NW
Meteor 2-15 Rocket 4.4 17:40:46 10° S 17:46:54 83° W 17:52:58 10° N
DASH 3.2 17:40:09 10° WNW 17:55:53 81° NNE 17:56:21 73° ENE
ARIANE 5 R/B 4.5 17:54:10 10° SSW 17:58:22 27° WSW 18:02:33 10° NW
CENTAUR R/B 4.0 17:51:18 10° NW 17:59:58 47° WSW 18:07:24 10° SSE
Palapa 6 Rocket 4.0 18:00:28 10° W 18:07:46 70° N 18:07:48 70° N
Cosmos 1943 4.3 18:19:25 10° SW 18:24:46 42° WNW 18:25:53 38° NW
Atlas Centaur 2 4.3 18:21:48 10° NNW 18:23:02 16° NNW 18:23:02 16° NNW
